Time,TemperatureF,DewpointF,PressureIn,WindDirection,WindDirectionDegrees,WindSpeedMPH,WindSpeedGustMPH,Humidity,HourlyPrecipIn,Conditions,Clouds,dailyrainin,SoftwareType,DateUTC
2013-06-04 00:01:00,62.7,60.3,30.01,NNW,330,0.0,0.0,92,0.00,,---,0.00,VWS V14.01,2013-06-04 04:01:00,
2013-06-04 00:07:00,62.7,60.3,30.02,NNW,330,0.0,0.0,92,0.00,,---,0.00,VWS V14.01,2013-06-04 04:07:00,
2013-06-04 00:12:00,62.6,60.2,30.02,NNW,330,0.0,0.0,92,0.00,,---,0.00,VWS V14.01,2013-06-04 04:12:00,
2013-06-04 00:17:00,62.5,60.2,30.02,NNW,330,0.0,0.0,92,0.00,,---,0.00,VWS V14.01,2013-06-04 04:17:00,
2013-06-04 00:22:00,62.2,60.2,30.02,NNW,330,0.0,0.0,93,0.00,,---,0.00,VWS V14.01,2013-06-04 04:22:00,
2013-06-04 00:27:00,62.0,60.0,30.02,NNW,330,0.0,0.0,93,0.00,,---,0.00,VWS V14.01,2013-06-04 04:27:00,
2013-06-04 00:32:00,61.8,59.8,30.02,NNW,330,0.0,0.0,93,0.00,,---,0.00,VWS V14.01,2013-06-04 04:32:00,
2013-06-04 00:37:00,61.6,59.6,30.02,NNW,330,0.0,0.0,93,0.00,,---,0.00,VWS V14.01,2013-06-04 04:37:00,
2013-06-04 00:42:00,61.4,59.4,30.02,NNW,330,0.0,0.0,93,0.00,,---,0.00,VWS V14.01,2013-06-04 04:42:00,
2013-06-04 00:47:00,61.3,59.6,30.02,NNW,330,0.0,0.0,94,0.00,,---,0.00,VWS V14.01,2013-06-04 04:47:00,
2013-06-04 00:52:00,61.1,59.4,30.02,NNW,330,0.0,0.0,94,0.00,,---,0.00,VWS V14.01,2013-06-04 04:52:00,
2013-06-04 00:57:00,61.0,59.3,30.02,NNW,330,0.0,0.0,94,0.00,,---,0.00,VWS V14.01,2013-06-04 04:57:00,
2013-06-04 01:02:00,60.9,59.2,30.02,NNW,330,0.0,0.0,94,0.00,,---,0.00,VWS V14.01,2013-06-04 05:02:00,
2013-06-04 01:07:00,60.7,59.0,30.02,NNW,330,0.0,0.0,94,0.00,,---,0.00,VWS V14.01,2013-06-04 05:07:00,
2013-06-04 01:12:00,60.6,58.9,30.02,NNW,330,0.0,0.0,94,0.00,,---,0.00,VWS V14.01,2013-06-04 05:12:00,
2013-06-04 01:17:00,60.5,58.8,30.02,NNW,329,0.0,0.0,94,0.00,,---,0.00,VWS V14.01,2013-06-04 05:17:00,
2013-06-04 01:22:00,60.4,58.7,30.02,NNW,330,0.0,0.0,94,0.00,,---,0.00,VWS V14.01,2013-06-04 05:22:00,
2013-06-04 01:27:00,60.2,58.5,30.02,NNW,330,0.0,0.0,94,0.00,,---,0.00,VWS V14.01,2013-06-04 05:27:00,
2013-06-04 01:32:00,60.1,58.4,30.02,NNW,330,0.0,0.0,94,0.00,,---,0.00,VWS V14.01,2013-06-04 05:32:00,
2013-06-04 01:37:00,60.0,58.3,30.02,NNW,330,0.0,0.0,94,0.00,,---,0.00,VWS V14.01,2013-06-04 05:37:00,
2013-06-04 01:42:00,59.9,58.5,30.02,NNW,330,0.0,0.0,95,0.00,,---,0.00,VWS V14.01,2013-06-04 05:42:00,
2013-06-04 01:47:00,59.8,58.4,30.02,NNW,330,0.0,0.0,95,0.00,,---,0.00,VWS V14.01,2013-06-04 05:47:00,
2013-06-04 01:52:00,59.8,58.4,30.02,NNW,330,0.0,0.0,95,0.00,,---,0.00,VWS V14.01,2013-06-04 05:52:00,
2013-06-04 01:57:00,59.7,58.3,30.02,NNW,330,0.0,0.0,95,0.00,,---,0.00,VWS V14.01,2013-06-04 05:57:00,
2013-06-04 02:02:00,59.6,58.2,30.02,NNW,330,0.0,0.0,95,0.00,,---,0.00,VWS V14.01,2013-06-04 06:02:00,
2013-06-04 02:07:00,59.7,58.3,30.02,NNW,330,0.0,0.0,95,0.00,,---,0.00,VWS V14.01,2013-06-04 06:07:00,
2013-06-04 02:12:00,59.6,58.2,30.02,NNW,329,0.0,0.0,95,0.00,,---,0.00,VWS V14.01,2013-06-04 06:12:00,
2013-06-04 02:17:00,59.7,58.3,30.02,NNW,328,0.0,0.0,95,0.00,,---,0.00,VWS V14.01,2013-06-04 06:17:00,
2013-06-04 02:22:00,59.7,58.3,30.02,NNW,328,0.0,0.0,95,0.00,,---,0.00,VWS V14.01,2013-06-04 06:22:00,
2013-06-04 02:27:00,59.7,58.0,30.02,NNW,328,0.0,0.0,94,0.00,,---,0.00,VWS V14.01,2013-06-04 06:27:00,
2013-06-04 02:32:00,59.7,58.0,30.02,NNW,328,0.0,0.0,94,0.00,,---,0.00,VWS V14.01,2013-06-04 06:32:00,
2013-06-04 02:37:00,59.7,58.0,30.02,NNW,328,0.0,0.0,94,0.00,,---,0.00,VWS V14.01,2013-06-04 06:37:00,
2013-06-04 02:42:00,59.7,58.0,30.02,NNW,329,0.0,0.0,94,0.00,,---,0.00,VWS V14.01,2013-06-04 06:42:00,
2013-06-04 02:47:00,59.6,57.9,30.02,NNW,329,0.0,0.0,94,0.00,,---,0.00,VWS V14.01,2013-06-04 06:47:00,
2013-06-04 02:52:00,59.5,57.8,30.02,NNW,329,0.0,0.0,94,0.00,,---,0.00,VWS V14.01,2013-06-04 06:52:00,
2013-06-04 02:57:00,59.3,57.6,30.02,NNW,329,0.0,0.0,94,0.00,,---,0.00,VWS V14.01,2013-06-04 06:57:00,
2013-06-04 03:02:00,59.3,57.6,30.02,NNW,329,0.0,0.0,94,0.00,,---,0.00,VWS V14.01,2013-06-04 07:02:00,
2013-06-04 03:07:00,59.1,57.4,30.02,NNW,329,0.0,0.0,94,0.00,,---,0.00,VWS V14.01,2013-06-04 07:07:00,
2013-06-04 03:12:00,59.0,57.3,30.02,NNW,329,0.0,0.0,94,0.00,,---,0.00,VWS V14.01,2013-06-04 07:12:00,
2013-06-04 03:17:00,58.8,57.4,30.02,NNW,329,0.0,0.0,95,0.00,,---,0.00,VWS V14.01,2013-06-04 07:17:00,
2013-06-04 03:22:00,58.6,57.2,30.02,NNW,329,0.0,0.0,95,0.00,,---,0.00,VWS V14.01,2013-06-04 07:22:00,
2013-06-04 03:27:00,58.6,57.2,30.02,NNW,329,0.0,0.0,95,0.00,,---,0.00,VWS V14.01,2013-06-04 07:27:00,
2013-06-04 03:32:00,58.5,57.1,30.02,NNW,329,0.0,0.0,95,0.00,,---,0.00,VWS V14.01,2013-06-04 07:32:00,
2013-06-04 03:37:00,58.3,56.9,30.02,NNW,329,0.0,0.0,95,0.00,,---,0.00,VWS V14.01,2013-06-04 07:37:00,
2013-06-04 03:42:00,58.3,56.9,30.02,NNW,329,0.0,0.0,95,0.00,,---,0.00,VWS V14.01,2013-06-04 07:42:00,
2013-06-04 03:47:00,58.2,56.8,30.02,NNW,329,0.0,0.0,95,0.00,,---,0.00,VWS V14.01,2013-06-04 07:47:00,
2013-06-04 03:52:00,58.0,56.6,30.02,NNW,329,0.0,0.0,95,0.00,,---,0.00,VWS V14.01,2013-06-04 07:52:00,
2013-06-04 03:57:00,57.9,56.5,30.01,NNW,329,0.0,0.0,95,0.00,,---,0.00,VWS V14.01,2013-06-04 07:57:00,
2013-06-04 04:02:00,57.8,56.4,30.01,NNW,329,0.0,0.0,95,0.00,,---,0.00,VWS V14.01,2013-06-04 08:02:00,
2013-06-04 04:07:00,57.6,56.2,30.01,NNW,329,0.0,0.0,95,0.00,,---,0.00,VWS V14.01,2013-06-04 08:07:00,
2013-06-04 04:12:00,57.4,56.0,30.01,NNW,329,0.0,0.0,95,0.00,,---,0.00,VWS V14.01,2013-06-04 08:12:00,
2013-06-04 04:17:00,57.3,55.9,30.02,NNW,329,0.0,0.0,95,0.00,,---,0.00,VWS V14.01,2013-06-04 08:17:00,
2013-06-04 04:22:00,57.2,55.8,30.02,NNW,329,0.0,0.0,95,0.00,,---,0.00,VWS V14.01,2013-06-04 08:22:00,
2013-06-04 04:27:00,57.1,55.7,30.02,NNW,329,0.0,0.0,95,0.00,,---,0.00,VWS V14.01,2013-06-04 08:27:00,
2013-06-04 04:32:00,57.0,55.6,30.01,NNW,329,0.0,0.0,95,0.00,,---,0.00,VWS V14.01,2013-06-04 08:32:00,
2013-06-04 04:37:00,57.0,55.6,30.02,NNW,329,0.0,0.0,95,0.00,,---,0.00,VWS V14.01,2013-06-04 08:37:00,
2013-06-04 04:42:00,56.9,55.5,30.02,NNW,329,0.0,0.0,95,0.00,,---,0.00,VWS V14.01,2013-06-04 08:42:00,
2013-06-04 04:47:00,56.9,55.5,30.02,NNW,329,0.0,0.0,95,0.00,,---,0.00,VWS V14.01,2013-06-04 08:47:00,
2013-06-04 04:52:00,56.8,55.4,30.03,NNW,329,0.0,0.0,95,0.00,,---,0.00,VWS V14.01,2013-06-04 08:52:00,
2013-06-04 04:57:00,56.9,55.8,30.03,NNW,329,0.0,0.0,96,0.00,,---,0.00,VWS V14.01,2013-06-04 08:57:00,
2013-06-04 05:02:00,57.1,56.0,30.03,NNW,329,0.0,0.0,96,0.00,,---,0.00,VWS V14.01,2013-06-04 09:02:00,
2013-06-04 05:07:00,57.1,56.0,30.03,NNW,329,0.0,0.0,96,0.00,,---,0.00,VWS V14.01,2013-06-04 09:07:00,
2013-06-04 05:12:00,57.1,56.0,30.03,NNW,329,0.0,0.0,96,0.00,,---,0.00,VWS V14.01,2013-06-04 09:12:00,
2013-06-04 05:17:00,57.2,56.1,30.03,NNW,329,0.0,0.0,96,0.00,,---,0.00,VWS V14.01,2013-06-04 09:17:00,
2013-06-04 05:22:00,57.3,55.9,30.04,NNW,329,0.0,0.0,95,0.00,,---,0.00,VWS V14.01,2013-06-04 09:22:00,
2013-06-04 05:27:00,57.1,55.7,30.04,NNW,329,0.0,0.0,95,0.00,,---,0.00,VWS V14.01,2013-06-04 09:27:00,
2013-06-04 05:32:00,57.0,55.6,30.04,NNW,329,0.0,0.0,95,0.00,,---,0.00,VWS V14.01,2013-06-04 09:32:00,
2013-06-04 05:37:00,56.9,55.5,30.04,NNW,329,0.0,0.0,95,0.00,,---,0.00,VWS V14.01,2013-06-04 09:37:00,
2013-06-04 05:42:00,56.8,55.4,30.04,NNW,329,0.0,0.0,95,0.00,,---,0.00,VWS V14.01,2013-06-04 09:42:00,
2013-06-04 05:47:00,56.9,55.5,30.05,NNW,329,0.0,0.0,95,0.00,,---,0.00,VWS V14.01,2013-06-04 09:47:00,
2013-06-04 05:52:00,57.0,55.6,30.05,NNW,329,0.0,0.0,95,0.00,,---,0.00,VWS V14.01,2013-06-04 09:52:00,
2013-06-04 05:57:00,57.1,55.7,30.05,NNW,329,0.0,0.0,95,0.00,,---,0.00,VWS V14.01,2013-06-04 09:57:00,
2013-06-04 06:02:00,57.0,55.6,30.05,NNW,329,0.0,0.0,95,0.00,,---,0.00,VWS V14.01,2013-06-04 10:02:00,
2013-06-04 06:07:00,57.0,55.6,30.05,NNW,329,0.0,0.0,95,0.00,,---,0.00,VWS V14.01,2013-06-04 10:07:00,
2013-06-04 06:12:00,56.9,55.5,30.05,NNW,329,0.0,0.0,95,0.00,,---,0.00,VWS V14.01,2013-06-04 10:12:00,
2013-06-04 06:17:00,56.9,55.5,30.05,NNW,329,0.0,0.0,95,0.00,,---,0.00,VWS V14.01,2013-06-04 10:17:00,
2013-06-04 06:22:00,56.9,55.5,30.05,NNW,329,0.0,0.0,95,0.00,,---,0.00,VWS V14.01,2013-06-04 10:22:00,
2013-06-04 06:27:00,56.9,55.5,30.06,NNW,329,0.0,0.0,95,0.00,,---,0.00,VWS V14.01,2013-06-04 10:27:00,
2013-06-04 06:32:00,57.1,55.7,30.06,NNW,329,0.0,0.0,95,0.00,,---,0.00,VWS V14.01,2013-06-04 10:32:00,
2013-06-04 06:37:00,57.2,55.8,30.06,NNW,329,0.0,0.0,95,0.00,,---,0.00,VWS V14.01,2013-06-04 10:37:00,
2013-06-04 06:42:00,57.1,55.7,30.06,NNW,329,0.0,0.0,95,0.00,,---,0.00,VWS V14.01,2013-06-04 10:42:00,
2013-06-04 06:47:00,57.2,55.8,30.07,NNW,329,0.0,0.0,95,0.00,,---,0.00,VWS V14.01,2013-06-04 10:47:00,
2013-06-04 06:52:00,57.3,55.9,30.07,NNW,329,0.0,0.0,95,0.00,,---,0.00,VWS V14.01,2013-06-04 10:52:00,
2013-06-04 06:57:00,57.3,55.9,30.07,NNW,329,0.0,0.0,95,0.00,,---,0.00,VWS V14.01,2013-06-04 10:57:00,
2013-06-04 07:02:00,57.5,56.1,30.07,NNW,329,0.0,0.0,95,0.00,,---,0.00,VWS V14.01,2013-06-04 11:02:00,
2013-06-04 07:07:00,57.6,56.2,30.07,NNW,329,0.0,0.0,95,0.00,,---,0.00,VWS V14.01,2013-06-04 11:07:00,
2013-06-04 07:12:00,57.7,56.3,30.08,NNW,329,0.0,0.0,95,0.00,,---,0.00,VWS V14.01,2013-06-04 11:12:00,
2013-06-04 07:17:00,58.0,56.6,30.08,NNW,329,0.0,0.0,95,0.00,,---,0.00,VWS V14.01,2013-06-04 11:17:00,
2013-06-04 07:22:00,58.5,57.4,30.08,NNW,329,0.0,0.0,96,0.00,,---,0.00,VWS V14.01,2013-06-04 11:22:00,
2013-06-04 07:27:00,58.7,57.3,30.08,NNW,329,0.0,0.0,95,0.00,,---,0.00,VWS V14.01,2013-06-04 11:27:00,
2013-06-04 07:32:00,59.0,57.6,30.08,NNW,329,0.0,0.0,95,0.00,,---,0.00,VWS V14.01,2013-06-04 11:32:00,
2013-06-04 07:37:00,59.5,58.1,30.08,NNW,329,0.0,0.0,95,0.00,,---,0.00,VWS V14.01,2013-06-04 11:37:00,
2013-06-04 07:42:00,60.2,58.8,30.08,NNW,329,0.0,0.0,95,0.00,,---,0.00,VWS V14.01,2013-06-04 11:42:00,
2013-06-04 07:47:00,60.7,59.0,30.08,NNW,329,0.0,0.0,94,0.00,,---,0.00,VWS V14.01,2013-06-04 11:47:00,
2013-06-04 07:52:00,61.4,59.4,30.09,NNW,329,0.0,0.0,93,0.00,,---,0.00,VWS V14.01,2013-06-04 11:52:00,
2013-06-04 07:57:00,62.0,59.3,30.08,NNW,329,0.0,0.0,91,0.00,,---,0.00,VWS V14.01,2013-06-04 11:57:00,
2013-06-04 08:02:00,62.6,60.2,30.09,NNW,329,0.0,0.0,92,0.00,,---,0.00,VWS V14.01,2013-06-04 12:02:00,
2013-06-04 08:07:00,63.1,59.8,30.09,NNW,329,0.0,0.0,89,0.00,,---,0.00,VWS V14.01,2013-06-04 12:07:00,
2013-06-04 08:12:00,63.7,60.4,30.09,NNW,329,0.0,0.0,89,0.00,,---,0.00,VWS V14.01,2013-06-04 12:12:00,
2013-06-04 08:17:00,64.3,61.0,30.09,NNW,329,0.0,0.0,89,0.00,,---,0.00,VWS V14.01,2013-06-04 12:17:00,
2013-06-04 08:22:00,64.7,60.8,30.09,NNW,329,0.0,0.0,87,0.00,,---,0.00,VWS V14.01,2013-06-04 12:22:00,
2013-06-04 08:27:00,65.0,60.7,30.09,NNW,329,0.0,0.0,86,0.00,,---,0.00,VWS V14.01,2013-06-04 12:27:00,
2013-06-04 08:32:00,65.4,61.1,30.09,NNW,329,0.0,0.0,86,0.00,,---,0.00,VWS V14.01,2013-06-04 12:32:00,
2013-06-04 08:37:00,65.7,61.1,30.10,North,360,0.0,0.0,85,0.00,,---,0.00,VWS V14.01,2013-06-04 12:37:00,
2013-06-04 08:42:00,66.2,61.9,30.10,North,355,0.0,0.0,86,0.00,,---,0.00,VWS V14.01,2013-06-04 12:42:00,
2013-06-04 08:47:00,66.4,60.4,30.10,NW,326,0.0,0.0,81,0.00,,---,0.00,VWS V14.01,2013-06-04 12:47:00,
2013-06-04 08:52:00,66.6,61.6,30.10,NNW,345,0.0,0.0,84,0.00,,---,0.00,VWS V14.01,2013-06-04 12:52:00,
2013-06-04 08:57:00,66.8,61.1,30.10,NNE,28,0.0,0.0,82,0.00,,---,0.00,VWS V14.01,2013-06-04 12:57:00,
2013-06-04 09:02:00,67.0,60.6,30.11,NW,315,0.0,0.0,80,0.00,,---,0.00,VWS V14.01,2013-06-04 13:02:00,
2013-06-04 09:07:00,67.0,60.6,30.11,NNW,327,0.0,0.0,80,0.00,,---,0.00,VWS V14.01,2013-06-04 13:07:00,
2013-06-04 09:12:00,67.1,60.4,30.11,NW,314,0.0,0.0,79,0.00,,---,0.00,VWS V14.01,2013-06-04 13:12:00,
2013-06-04 09:17:00,67.4,60.7,30.11,North,11,0.0,0.0,79,0.00,,---,0.00,VWS V14.01,2013-06-04 13:17:00,
2013-06-04 09:22:00,67.8,60.7,30.11,NNW,344,0.0,0.0,78,0.00,,---,0.00,VWS V14.01,2013-06-04 13:22:00,
2013-06-04 09:27:00,68.3,61.2,30.11,NNE,18,0.0,0.0,78,0.00,,---,0.00,VWS V14.01,2013-06-04 13:27:00,
2013-06-04 09:32:00,68.3,60.8,30.11,NW,325,0.0,0.0,77,0.00,,---,0.00,VWS V14.01,2013-06-04 13:32:00,
2013-06-04 09:37:00,68.1,61.0,30.12,WNW,302,0.0,0.0,78,0.00,,---,0.00,VWS V14.01,2013-06-04 13:37:00,
2013-06-04 09:42:00,68.2,61.1,30.12,NW,323,0.0,0.0,78,0.00,,---,0.00,VWS V14.01,2013-06-04 13:42:00,
2013-06-04 09:47:00,68.3,60.8,30.12,North,360,0.0,0.0,77,0.00,,---,0.00,VWS V14.01,2013-06-04 13:47:00,
2013-06-04 09:52:00,68.6,60.7,30.12,North,5,0.0,0.0,76,0.00,,---,0.00,VWS V14.01,2013-06-04 13:52:00,
2013-06-04 09:57:00,68.9,61.4,30.12,North,5,0.0,0.0,77,0.00,,---,0.00,VWS V14.01,2013-06-04 13:57:00,
2013-06-04 10:02:00,69.2,62.1,30.12,North,350,0.0,0.0,78,0.00,,---,0.00,VWS V14.01,2013-06-04 14:02:00,
2013-06-04 10:07:00,69.4,61.5,30.12,North,360,0.0,0.0,76,0.00,,---,0.00,VWS V14.01,2013-06-04 14:07:00,
2013-06-04 10:12:00,69.6,61.7,30.12,WNW,302,0.0,0.0,76,0.00,,---,0.00,VWS V14.01,2013-06-04 14:12:00,
2013-06-04 10:17:00,70.0,62.5,30.12,WNW,302,0.0,0.0,77,0.00,,---,0.00,VWS V14.01,2013-06-04 14:17:00,
2013-06-04 10:22:00,70.5,62.2,30.12,ENE,72,0.0,0.0,75,0.00,,---,0.00,VWS V14.01,2013-06-04 14:22:00,
2013-06-04 10:27:00,71.0,64.5,30.12,ENE,62,0.0,0.0,80,0.00,,---,0.00,VWS V14.01,2013-06-04 14:27:00,
2013-06-04 10:32:00,71.3,61.4,30.12,NNE,30,0.0,0.0,71,0.00,,---,0.00,VWS V14.01,2013-06-04 14:32:00,
2013-06-04 10:37:00,71.2,60.9,30.12,NNE,31,0.0,0.0,70,0.00,,---,0.00,VWS V14.01,2013-06-04 14:37:00,
2013-06-04 10:42:00,71.1,63.2,30.12,NNE,30,0.0,0.0,76,0.00,,---,0.00,VWS V14.01,2013-06-04 14:42:00,
2013-06-04 10:47:00,71.0,62.3,30.12,NNE,30,0.0,0.0,74,0.00,,---,0.00,VWS V14.01,2013-06-04 14:47:00,
2013-06-04 10:52:00,70.8,61.7,30.11,NNE,30,0.0,0.0,73,0.00,,---,0.00,VWS V14.01,2013-06-04 14:52:00,
2013-06-04 10:57:00,70.8,63.6,30.12,NNE,30,0.0,0.0,78,0.00,,---,0.00,VWS V14.01,2013-06-04 14:57:00,
2013-06-04 11:02:00,71.0,61.9,30.11,NNE,27,0.0,0.0,73,0.00,,---,0.00,VWS V14.01,2013-06-04 15:02:00,
2013-06-04 11:07:00,71.2,63.3,30.11,NNE,27,0.0,0.0,76,0.00,,---,0.00,VWS V14.01,2013-06-04 15:07:00,
2013-06-04 11:12:00,71.6,62.9,30.11,ENE,71,0.0,0.0,74,0.00,,---,0.00,VWS V14.01,2013-06-04 15:12:00,
2013-06-04 11:17:00,72.1,63.0,30.11,ENE,71,0.0,0.0,73,0.00,,---,0.00,VWS V14.01,2013-06-04 15:17:00,
2013-06-04 11:22:00,72.5,62.2,30.11,SSE,153,0.0,0.0,70,0.00,,---,0.00,VWS V14.01,2013-06-04 15:22:00,
2013-06-04 11:27:00,72.7,62.4,30.12,SE,143,0.0,0.0,70,0.00,,---,0.00,VWS V14.01,2013-06-04 15:27:00,
2013-06-04 11:32:00,73.1,62.7,30.12,East,99,0.0,0.0,70,0.00,,---,0.00,VWS V14.01,2013-06-04 15:32:00,
2013-06-04 11:37:00,73.4,63.0,30.12,SE,136,0.0,0.0,70,0.00,,---,0.00,VWS V14.01,2013-06-04 15:37:00,
2013-06-04 11:42:00,73.5,61.9,30.12,SE,137,0.0,0.0,67,0.00,,---,0.00,VWS V14.01,2013-06-04 15:42:00,
2013-06-04 11:47:00,73.5,63.5,30.12,SE,124,0.0,0.0,71,0.00,,---,0.00,VWS V14.01,2013-06-04 15:47:00,
2013-06-04 11:52:00,73.5,61.0,30.12,SSW,202,0.0,0.0,65,0.00,,---,0.00,VWS V14.01,2013-06-04 15:52:00,
2013-06-04 11:57:00,73.5,62.3,30.12,ENE,62,0.0,0.0,68,0.00,,---,0.00,VWS V14.01,2013-06-04 15:57:00,
2013-06-04 12:02:00,73.7,61.2,30.12,North,349,0.0,0.0,65,0.00,,---,0.00,VWS V14.01,2013-06-04 16:02:00,
2013-06-04 12:07:00,73.9,61.8,30.12,NW,312,0.0,0.0,66,0.00,,---,0.00,VWS V14.01,2013-06-04 16:07:00,
2013-06-04 12:12:00,73.7,60.8,30.12,WSW,243,0.0,0.0,64,0.00,,---,0.00,VWS V14.01,2013-06-04 16:12:00,
2013-06-04 12:17:00,73.4,60.9,30.12,WSW,243,0.0,0.0,65,0.00,,---,0.00,VWS V14.01,2013-06-04 16:17:00,
2013-06-04 12:22:00,73.1,61.5,30.12,SW,221,0.0,0.0,67,0.00,,---,0.00,VWS V14.01,2013-06-04 16:22:00,
2013-06-04 12:27:00,73.2,61.6,30.12,SW,221,0.0,0.0,67,0.00,,---,0.00,VWS V14.01,2013-06-04 16:27:00,
2013-06-04 12:32:00,73.3,62.9,30.12,SSE,162,0.0,0.0,70,0.00,,---,0.00,VWS V14.01,2013-06-04 16:32:00,
2013-06-04 12:37:00,73.8,62.2,30.12,ESE,113,0.0,0.0,67,0.00,,---,0.00,VWS V14.01,2013-06-04 16:37:00,
2013-06-04 12:42:00,74.1,61.6,30.12,South,188,0.0,0.0,65,0.00,,---,0.00,VWS V14.01,2013-06-04 16:42:00,
2013-06-04 12:47:00,74.2,60.8,30.12,SE,142,0.0,0.0,63,0.00,,---,0.00,VWS V14.01,2013-06-04 16:47:00,
2013-06-04 12:52:00,74.2,61.7,30.12,SSW,208,0.0,0.0,65,0.00,,---,0.00,VWS V14.01,2013-06-04 16:52:00,
2013-06-04 12:57:00,74.4,63.2,30.12,SSE,165,0.0,0.0,68,0.00,,---,0.00,VWS V14.01,2013-06-04 16:57:00,
2013-06-04 13:02:00,74.6,63.8,30.12,South,190,0.0,0.0,69,0.00,,---,0.00,VWS V14.01,2013-06-04 17:02:00,
2013-06-04 13:07:00,74.7,62.6,30.11,South,191,0.0,0.0,66,0.00,,---,0.00,VWS V14.01,2013-06-04 17:07:00,
2013-06-04 13:12:00,74.6,62.1,30.11,SSW,198,0.0,0.0,65,0.00,,---,0.00,VWS V14.01,2013-06-04 17:12:00,
2013-06-04 13:17:00,74.4,63.2,30.11,SE,144,0.0,0.0,68,0.00,,---,0.00,VWS V14.01,2013-06-04 17:17:00,
2013-06-04 13:22:00,74.3,63.5,30.11,ESE,116,0.0,0.0,69,0.00,,---,0.00,VWS V14.01,2013-06-04 17:22:00,
2013-06-04 13:27:00,74.4,61.9,30.11,SE,138,0.0,0.0,65,0.00,,---,0.00,VWS V14.01,2013-06-04 17:27:00,
2013-06-04 13:32:00,74.5,63.7,30.11,SE,138,0.0,0.0,69,0.00,,---,0.00,VWS V14.01,2013-06-04 17:32:00,
2013-06-04 13:37:00,74.1,61.6,30.11,SSW,203,0.0,0.0,65,0.00,,---,0.00,VWS V14.01,2013-06-04 17:37:00,
2013-06-04 13:42:00,73.9,62.7,30.11,SSE,160,0.0,0.0,68,0.00,,---,0.00,VWS V14.01,2013-06-04 17:42:00,
2013-06-04 13:47:00,74.0,62.4,30.11,ESE,123,0.0,0.0,67,0.00,,---,0.00,VWS V14.01,2013-06-04 17:47:00,
2013-06-04 13:52:00,74.1,63.3,30.11,ESE,123,0.0,0.0,69,0.00,,---,0.00,VWS V14.01,2013-06-04 17:52:00,
2013-06-04 13:57:00,73.9,62.3,30.11,SE,142,0.0,0.0,67,0.00,,---,0.00,VWS V14.01,2013-06-04 17:57:00,
2013-06-04 14:02:00,73.8,61.3,30.11,SE,142,0.0,0.0,65,0.00,,---,0.00,VWS V14.01,2013-06-04 18:02:00,
2013-06-04 14:07:00,73.8,62.6,30.11,SE,136,0.0,0.0,68,0.00,,---,0.00,VWS V14.01,2013-06-04 18:07:00,
2013-06-04 14:12:00,73.8,61.7,30.11,SE,136,0.0,0.0,66,0.00,,---,0.00,VWS V14.01,2013-06-04 18:12:00,
2013-06-04 14:17:00,73.8,61.7,30.11,South,191,0.0,0.0,66,0.00,,---,0.00,VWS V14.01,2013-06-04 18:17:00,
2013-06-04 14:22:00,73.8,61.7,30.11,South,191,0.0,0.0,66,0.00,,---,0.00,VWS V14.01,2013-06-04 18:22:00,
2013-06-04 14:27:00,74.0,62.4,30.11,SSE,168,0.0,0.0,67,0.00,,---,0.00,VWS V14.01,2013-06-04 18:27:00,
2013-06-04 14:32:00,74.5,62.4,30.11,South,182,0.0,0.0,66,0.00,,---,0.00,VWS V14.01,2013-06-04 18:32:00,
2013-06-04 14:37:00,74.8,61.8,30.11,SSE,167,0.0,0.0,64,0.00,,---,0.00,VWS V14.01,2013-06-04 18:37:00,
2013-06-04 14:42:00,75.3,63.6,30.11,South,182,0.0,0.0,67,0.00,,---,0.00,VWS V14.01,2013-06-04 18:42:00,
2013-06-04 14:47:00,75.7,63.1,30.11,South,188,0.0,0.0,65,0.00,,---,0.00,VWS V14.01,2013-06-04 18:47:00,
2013-06-04 14:52:00,76.1,63.0,30.10,SSW,200,0.0,0.0,64,0.00,,---,0.00,VWS V14.01,2013-06-04 18:52:00,
2013-06-04 14:57:00,76.3,60.9,30.10,South,186,0.0,0.0,59,0.00,,---,0.00,VWS V14.01,2013-06-04 18:57:00,
2013-06-04 15:02:00,76.7,63.6,30.10,SE,138,0.0,0.0,64,0.00,,---,0.00,VWS V14.01,2013-06-04 19:02:00,
2013-06-04 15:07:00,76.7,60.8,30.10,South,174,0.0,0.0,58,0.00,,---,0.00,VWS V14.01,2013-06-04 19:07:00,
2013-06-04 15:12:00,76.6,63.5,30.11,South,181,0.0,0.0,64,0.00,,---,0.00,VWS V14.01,2013-06-04 19:12:00,
2013-06-04 15:17:00,76.5,63.0,30.10,South,177,0.0,0.0,63,0.00,,---,0.00,VWS V14.01,2013-06-04 19:17:00,
2013-06-04 15:22:00,76.4,62.4,30.11,South,181,0.0,0.0,62,0.00,,---,0.00,VWS V14.01,2013-06-04 19:22:00,
2013-06-04 15:27:00,76.3,62.8,30.10,South,181,0.0,0.0,63,0.00,,---,0.00,VWS V14.01,2013-06-04 19:27:00,
2013-06-04 15:32:00,76.4,61.5,30.10,SSW,201,0.0,0.0,60,0.00,,---,0.00,VWS V14.01,2013-06-04 19:32:00,
2013-06-04 15:37:00,76.7,62.2,30.10,SSW,193,0.0,0.0,61,0.00,,---,0.00,VWS V14.01,2013-06-04 19:37:00,
2013-06-04 15:42:00,77.0,63.9,30.11,SSW,196,0.0,0.0,64,0.00,,---,0.00,VWS V14.01,2013-06-04 19:42:00,
2013-06-04 15:47:00,77.4,62.0,30.10,SE,145,0.0,0.0,59,0.00,,---,0.00,VWS V14.01,2013-06-04 19:47:00,
2013-06-04 15:52:00,77.5,63.5,30.10,SSE,156,0.0,0.0,62,0.00,,---,0.00,VWS V14.01,2013-06-04 19:52:00,
2013-06-04 15:57:00,77.8,62.3,30.10,SW,218,0.0,0.0,59,0.00,,---,0.00,VWS V14.01,2013-06-04 19:57:00,
2013-06-04 16:02:00,78.1,62.1,30.10,WSW,243,0.0,0.0,58,0.00,,---,0.00,VWS V14.01,2013-06-04 20:02:00,
2013-06-04 16:07:00,78.0,63.5,30.10,SW,217,0.0,0.0,61,0.00,,---,0.00,VWS V14.01,2013-06-04 20:07:00,
2013-06-04 16:12:00,78.0,62.5,30.10,SSE,158,0.0,0.0,59,0.00,,---,0.00,VWS V14.01,2013-06-04 20:12:00,
2013-06-04 16:17:00,77.7,60.8,30.09,SSE,157,0.0,0.0,56,0.00,,---,0.00,VWS V14.01,2013-06-04 20:17:00,
2013-06-04 16:22:00,77.3,63.3,30.09,SE,130,0.0,0.0,62,0.00,,---,0.00,VWS V14.01,2013-06-04 20:22:00,
2013-06-04 16:27:00,76.8,63.3,30.09,South,188,0.0,0.0,63,0.00,,---,0.00,VWS V14.01,2013-06-04 20:27:00,
2013-06-04 16:32:00,76.6,64.4,30.09,ESE,116,0.0,0.0,66,0.00,,---,0.00,VWS V14.01,2013-06-04 20:32:00,
2013-06-04 16:37:00,76.5,64.3,30.09,SE,136,0.0,0.0,66,0.00,,---,0.00,VWS V14.01,2013-06-04 20:37:00,
2013-06-04 16:42:00,76.5,64.3,30.09,SE,136,0.0,0.0,66,0.00,,---,0.00,VWS V14.01,2013-06-04 20:42:00,
2013-06-04 16:47:00,76.6,64.4,30.09,SSE,149,0.0,0.0,66,0.00,,---,0.00,VWS V14.01,2013-06-04 20:47:00,
2013-06-04 16:52:00,76.2,65.7,30.09,SSW,198,0.0,0.0,70,0.00,,---,0.00,VWS V14.01,2013-06-04 20:52:00,
2013-06-04 16:57:00,75.9,65.0,30.09,SE,140,0.0,0.0,69,0.00,,---,0.00,VWS V14.01,2013-06-04 20:57:00,
2013-06-04 17:02:00,75.1,65.1,30.09,ESE,123,0.0,0.0,71,0.00,,---,0.00,VWS V14.01,2013-06-04 21:02:00,
2013-06-04 17:07:00,74.5,65.3,30.09,ESE,123,0.0,0.0,73,0.00,,---,0.00,VWS V14.01,2013-06-04 21:07:00,
2013-06-04 17:12:00,74.4,66.0,30.09,South,181,0.0,0.0,75,0.00,,---,0.00,VWS V14.01,2013-06-04 21:12:00,
2013-06-04 17:17:00,74.7,65.5,30.09,ESE,123,0.0,0.0,73,0.00,,---,0.00,VWS V14.01,2013-06-04 21:17:00,
2013-06-04 17:22:00,75.1,65.9,30.09,SSW,212,0.0,0.0,73,0.00,,---,0.00,VWS V14.01,2013-06-04 21:22:00,
2013-06-04 17:27:00,75.7,65.2,30.09,South,182,0.0,0.0,70,0.00,,---,0.00,VWS V14.01,2013-06-04 21:27:00,
2013-06-04 17:32:00,76.0,65.9,30.09,South,175,0.0,0.0,71,0.00,,---,0.00,VWS V14.01,2013-06-04 21:32:00,
2013-06-04 17:37:00,75.7,65.2,30.08,SSE,165,0.0,0.0,70,0.00,,---,0.00,VWS V14.01,2013-06-04 21:37:00,
2013-06-04 17:42:00,75.8,66.5,30.08,SSE,165,0.0,0.0,73,0.00,,---,0.00,VWS V14.01,2013-06-04 21:42:00,
2013-06-04 17:47:00,76.0,65.9,30.08,ESE,111,0.0,0.0,71,0.00,,---,0.00,VWS V14.01,2013-06-04 21:47:00,
2013-06-04 17:52:00,75.8,65.7,30.08,South,184,0.0,0.0,71,0.00,,---,0.00,VWS V14.01,2013-06-04 21:52:00,
2013-06-04 17:57:00,75.4,65.8,30.08,South,184,0.0,0.0,72,0.00,,---,0.00,VWS V14.01,2013-06-04 21:57:00,
2013-06-04 18:02:00,74.9,65.3,30.08,South,186,0.0,0.0,72,0.00,,---,0.00,VWS V14.01,2013-06-04 22:02:00,
2013-06-04 18:07:00,74.5,65.3,30.08,ESE,119,0.0,0.0,73,0.00,,---,0.00,VWS V14.01,2013-06-04 22:07:00,
2013-06-04 18:12:00,74.3,66.2,30.08,SSE,156,0.0,0.0,76,0.00,,---,0.00,VWS V14.01,2013-06-04 22:12:00,
2013-06-04 18:17:00,74.4,65.6,30.08,SE,126,0.0,0.0,74,0.00,,---,0.00,VWS V14.01,2013-06-04 22:17:00,
2013-06-04 18:22:00,74.2,64.6,30.08,SSE,147,0.0,0.0,72,0.00,,---,0.00,VWS V14.01,2013-06-04 22:22:00,
2013-06-04 18:27:00,73.7,64.1,30.08,ESE,123,0.0,1.0,72,0.00,,---,0.00,VWS V14.01,2013-06-04 22:27:00,
2013-06-04 18:32:00,73.1,63.9,30.08,SE,138,0.0,0.0,73,0.00,,---,0.00,VWS V14.01,2013-06-04 22:32:00,
2013-06-04 18:37:00,72.9,64.1,30.08,SE,138,0.0,0.0,74,0.00,,---,0.00,VWS V14.01,2013-06-04 22:37:00,
2013-06-04 18:42:00,72.8,64.0,30.08,SE,143,0.0,0.0,74,0.00,,---,0.00,VWS V14.01,2013-06-04 22:42:00,
2013-06-04 18:47:00,72.6,63.5,30.08,SSE,153,0.0,0.0,73,0.00,,---,0.00,VWS V14.01,2013-06-04 22:47:00,
2013-06-04 18:52:00,72.5,64.1,30.08,SSE,153,0.0,0.0,75,0.00,,---,0.00,VWS V14.01,2013-06-04 22:52:00,
2013-06-04 18:57:00,72.7,64.3,30.08,SSE,160,0.0,0.0,75,0.00,,---,0.00,VWS V14.01,2013-06-04 22:57:00,
2013-06-04 19:02:00,73.1,64.7,30.09,SSW,204,0.0,0.0,75,0.00,,---,0.00,VWS V14.01,2013-06-04 23:02:00,
2013-06-04 19:07:00,73.4,64.6,30.08,SSE,162,0.0,0.0,74,0.00,,---,0.00,VWS V14.01,2013-06-04 23:07:00,
2013-06-04 19:12:00,73.6,64.4,30.08,South,171,0.0,0.0,73,0.00,,---,0.00,VWS V14.01,2013-06-04 23:12:00,
2013-06-04 19:17:00,73.7,64.1,30.08,SSW,194,0.0,0.0,72,0.00,,---,0.00,VWS V14.01,2013-06-04 23:17:00,
2013-06-04 19:22:00,73.7,63.7,30.08,South,184,0.0,0.0,71,0.00,,---,0.00,VWS V14.01,2013-06-04 23:22:00,
2013-06-04 19:27:00,73.8,64.2,30.09,SSE,154,0.0,0.0,72,0.00,,---,0.00,VWS V14.01,2013-06-04 23:27:00,
2013-06-04 19:32:00,73.7,64.5,30.09,SSE,157,0.0,0.0,73,0.00,,---,0.00,VWS V14.01,2013-06-04 23:32:00,
2013-06-04 19:37:00,73.6,64.0,30.09,SSE,157,0.0,0.0,72,0.00,,---,0.00,VWS V14.01,2013-06-04 23:37:00,
2013-06-04 19:42:00,73.5,64.3,30.09,SSE,154,0.0,0.0,73,0.00,,---,0.00,VWS V14.01,2013-06-04 23:42:00,
2013-06-04 19:47:00,73.5,64.7,30.09,SSE,161,0.0,0.0,74,0.00,,---,0.00,VWS V14.01,2013-06-04 23:47:00,
2013-06-04 19:52:00,73.4,64.6,30.10,SSE,161,0.0,0.0,74,0.00,,---,0.00,VWS V14.01,2013-06-04 23:52:00,
2013-06-04 19:57:00,73.2,64.4,30.10,SSE,161,0.0,0.0,74,0.00,,---,0.00,VWS V14.01,2013-06-04 23:57:00,
2013-06-04 20:02:00,73.0,64.2,30.10,SSE,161,0.0,0.0,74,0.00,,---,0.00,VWS V14.01,2013-06-05 00:02:00,
2013-06-04 20:07:00,72.7,64.3,30.10,SSE,161,0.0,0.0,75,0.00,,---,0.00,VWS V14.01,2013-06-05 00:07:00,
2013-06-04 20:12:00,72.4,64.0,30.10,SSE,161,0.0,0.0,75,0.00,,---,0.00,VWS V14.01,2013-06-05 00:12:00,
2013-06-04 20:17:00,72.1,64.1,30.10,SSE,161,0.0,0.0,76,0.00,,---,0.00,VWS V14.01,2013-06-05 00:17:00,
2013-06-04 20:22:00,71.7,63.7,30.10,SSE,161,0.0,0.0,76,0.00,,---,0.00,VWS V14.01,2013-06-05 00:22:00,
2013-06-04 20:27:00,71.3,63.7,30.11,SSE,161,0.0,0.0,77,0.00,,---,0.00,VWS V14.01,2013-06-05 00:27:00,
2013-06-04 20:32:00,71.0,64.2,30.11,SSE,161,0.0,0.0,79,0.00,,---,0.00,VWS V14.01,2013-06-05 00:32:00,
2013-06-04 20:37:00,70.5,64.0,30.11,SSE,161,0.0,0.0,80,0.00,,---,0.00,VWS V14.01,2013-06-05 00:37:00,
2013-06-04 20:42:00,70.1,63.7,30.11,SSE,161,0.0,0.0,80,0.00,,---,0.00,VWS V14.01,2013-06-05 00:42:00,
2013-06-04 20:47:00,69.7,63.6,30.11,SSE,161,0.0,0.0,81,0.00,,---,0.00,VWS V14.01,2013-06-05 00:47:00,
2013-06-04 20:52:00,69.4,63.7,30.11,SSE,161,0.0,0.0,82,0.00,,---,0.00,VWS V14.01,2013-06-05 00:52:00,
2013-06-04 20:57:00,69.0,63.6,30.11,SSE,161,0.0,0.0,83,0.00,,---,0.00,VWS V14.01,2013-06-05 00:57:00,
2013-06-04 21:02:00,68.7,63.3,30.11,SSE,161,0.0,0.0,83,0.00,,---,0.00,VWS V14.01,2013-06-05 01:02:00,
2013-06-04 21:07:00,68.5,63.1,30.11,SSE,162,0.0,0.0,83,0.00,,---,0.00,VWS V14.01,2013-06-05 01:07:00,
2013-06-04 21:12:00,68.2,63.2,30.12,SSE,161,0.0,0.0,84,0.00,,---,0.00,VWS V14.01,2013-06-05 01:12:00,
2013-06-04 21:17:00,67.9,63.2,30.12,SSE,161,0.0,0.0,85,0.00,,---,0.00,VWS V14.01,2013-06-05 01:17:00,
2013-06-04 21:22:00,67.5,62.8,30.12,SSE,161,0.0,0.0,85,0.00,,---,0.00,VWS V14.01,2013-06-05 01:22:00,
2013-06-04 21:27:00,67.1,63.1,30.12,SSE,161,0.0,0.0,87,0.00,,---,0.00,VWS V14.01,2013-06-05 01:27:00,
2013-06-04 21:32:00,66.7,63.0,30.13,SSE,161,0.0,0.0,88,0.00,,---,0.00,VWS V14.01,2013-06-05 01:32:00,
2013-06-04 21:37:00,66.3,63.0,30.13,SSE,161,0.0,0.0,89,0.00,,---,0.00,VWS V14.01,2013-06-05 01:37:00,
2013-06-04 21:42:00,66.1,63.1,30.13,SSE,161,0.0,0.0,90,0.00,,---,0.00,VWS V14.01,2013-06-05 01:42:00,
2013-06-04 21:47:00,65.8,62.8,30.13,SSE,161,0.0,0.0,90,0.00,,---,0.00,VWS V14.01,2013-06-05 01:47:00,
2013-06-04 21:52:00,65.6,62.6,30.14,SSE,161,0.0,0.0,90,0.00,,---,0.00,VWS V14.01,2013-06-05 01:52:00,
2013-06-04 21:57:00,65.3,62.3,30.14,SSE,161,0.0,0.0,90,0.00,,---,0.00,VWS V14.01,2013-06-05 01:57:00,
2013-06-04 22:02:00,65.0,62.3,30.14,SSE,161,0.0,0.0,91,0.00,,---,0.00,VWS V14.01,2013-06-05 02:02:00,
2013-06-04 22:07:00,64.8,62.1,30.14,SSE,161,0.0,0.0,91,0.00,,---,0.00,VWS V14.01,2013-06-05 02:07:00,
2013-06-04 22:12:00,64.6,62.2,30.14,SSE,161,0.0,0.0,92,0.00,,---,0.00,VWS V14.01,2013-06-05 02:12:00,
2013-06-04 22:17:00,64.5,62.4,30.14,SSE,161,0.0,0.0,93,0.00,,---,0.00,VWS V14.01,2013-06-05 02:17:00,
2013-06-04 22:22:00,64.3,61.9,30.14,SSE,161,0.0,0.0,92,0.00,,---,0.00,VWS V14.01,2013-06-05 02:22:00,
2013-06-04 22:27:00,64.2,62.1,30.15,SSE,161,0.0,0.0,93,0.00,,---,0.00,VWS V14.01,2013-06-05 02:27:00,
2013-06-04 22:32:00,64.1,62.0,30.15,SSE,161,0.0,0.0,93,0.00,,---,0.00,VWS V14.01,2013-06-05 02:32:00,
2013-06-04 22:37:00,63.9,62.1,30.15,SSE,161,0.0,0.0,94,0.00,,---,0.00,VWS V14.01,2013-06-05 02:37:00,
2013-06-04 22:42:00,63.8,62.0,30.15,SSE,161,0.0,0.0,94,0.00,,---,0.00,VWS V14.01,2013-06-05 02:42:00,
2013-06-04 22:47:00,63.7,62.0,30.15,SSE,161,0.0,0.0,94,0.00,,---,0.00,VWS V14.01,2013-06-05 02:47:00,
2013-06-04 22:52:00,63.6,61.8,30.15,SSE,161,0.0,0.0,94,0.00,,---,0.00,VWS V14.01,2013-06-05 02:52:00,
2013-06-04 22:57:00,63.4,61.7,30.15,SSE,161,0.0,0.0,94,0.00,,---,0.00,VWS V14.01,2013-06-05 02:57:00,
2013-06-04 23:02:00,63.2,61.5,30.15,SSE,161,0.0,0.0,94,0.00,,---,0.00,VWS V14.01,2013-06-05 03:02:00,
2013-06-04 23:07:00,63.1,61.3,30.15,SSE,161,0.0,0.0,94,0.00,,---,0.00,VWS V14.01,2013-06-05 03:07:00,
2013-06-04 23:12:00,62.9,61.2,30.15,SSE,161,0.0,0.0,94,0.00,,---,0.00,VWS V14.01,2013-06-05 03:12:00,
2013-06-04 23:17:00,62.9,61.2,30.15,SSE,161,0.0,0.0,94,0.00,,---,0.00,VWS V14.01,2013-06-05 03:17:00,
2013-06-04 23:22:00,62.8,61.3,30.15,SSE,161,0.0,0.0,95,0.00,,---,0.00,VWS V14.01,2013-06-05 03:22:00,
2013-06-04 23:27:00,62.7,61.0,30.15,SSE,161,0.0,0.0,94,0.00,,---,0.00,VWS V14.01,2013-06-05 03:27:00,
2013-06-04 23:32:00,62.5,60.8,30.15,SSE,161,0.0,0.0,94,0.00,,---,0.00,VWS V14.01,2013-06-05 03:32:00,
2013-06-04 23:37:00,62.4,60.7,30.15,SSE,161,0.0,0.0,94,0.00,,---,0.00,VWS V14.01,2013-06-05 03:37:00,
2013-06-04 23:42:00,62.2,60.5,30.15,SSE,161,0.0,0.0,94,0.00,,---,0.00,VWS V14.01,2013-06-05 03:42:00,
2013-06-04 23:47:00,62.1,60.7,30.16,SSE,161,0.0,0.0,95,0.00,,---,0.00,VWS V14.01,2013-06-05 03:47:00,
2013-06-04 23:52:00,62.0,60.6,30.15,SSE,161,0.0,0.0,95,0.00,,---,0.00,VWS V14.01,2013-06-05 03:52:00,
2013-06-04 23:57:00,61.9,60.5,30.16,SSE,161,0.0,0.0,95,0.00,,---,0.00,VWS V14.01,2013-06-05 03:57:00,